Flag Weather past 2 weeks in Tiraspol, Moldova

Now
28 °F

Overcast.


Feels Like: 21 °F
Forecast: 23 / 31 °F
Wind: 7 mph from North

Location: Chisinau International Airport

Current Time: Nov 26, 2014 at 3:21:59 PM

Latest Report: Nov 26, 2014 at 3:00 PM


Visibility: 5 mi

Pressure: 30.33 "Hg

Humidity: 74%

Dew point: 21 °F

Location of TiraspolLocation

Historic Weather in Tiraspol — Graph

°F

Tiraspol temperature yesterday

Maximum temperature yesterday: 30 °F (at 1:00 AM)
Minimum temperature yesterday: 25 °F (at 8:00 PM)
Average temperature yesterday: 28 °F

Past Weeks' High & Low Weather Summary

 TemperatureHumidityPressure
High50 °F (Nov 12, 1:30 PM)93% (Nov 12, 12:00 AM)30.51 "Hg (Nov 12, 12:00 AM)
Low25 °F (Nov 25, 8:00 PM)60% (Nov 22, 10:00 AM)29.92 "Hg (Nov 20, 4:00 AM)
Average37 °F83%30.22 "Hg
* Reported Nov 11 2:00 PM — Nov 26 2:00 PM, Tiraspol, Weather by CustomWeather, © 2014

Note: Actual official high and low records may vary slightly from our data, if they occured in-between our weather recording intervals... More about our weather records

Advertising

Tiraspol weather history for previous 24 hours

 ConditionsComfort  
Time TempWeatherWind HumidityBarometerVisibility
2:00 PM
Nov 26
28 °FOvercast.8 mph74%30.33 "HgN/A
1:30 PM28 °FOvercast.9 mph74%30.33 "HgN/A
1:00 PM28 °FOvercast.12 mph74%30.33 "HgN/A
12:30 PM28 °FOvercast.9 mph74%30.33 "HgN/A
12:00 PM28 °FOvercast.8 mph69%30.33 "HgN/A
11:30 AM27 °FOvercast.10 mph74%30.36 "HgN/A
11:00 AM27 °FOvercast.10 mph74%30.36 "HgN/A
10:30 AM28 °FMostly cloudy.10 mph69%30.36 "HgN/A
10:00 AM27 °FMostly cloudy.13 mph74%30.36 "HgN/A
9:30 AM27 °FMostly cloudy.9 mph74%30.36 "HgN/A
9:00 AM27 °FMostly cloudy.9 mph74%30.36 "HgN/A
8:30 AM27 °FMostly cloudy.12 mph74%30.36 "HgN/A
8:00 AM27 °FOvercast.10 mph74%30.36 "HgN/A
7:30 AM27 °FOvercast.9 mph74%30.36 "HgN/A
7:00 AM25 °FOvercast.9 mph80%30.36 "HgN/A
6:30 AM25 °FOvercast.9 mph80%30.36 "HgN/A
6:00 AM25 °FOvercast.9 mph80%30.36 "HgN/A
5:30 AM25 °FOvercast.9 mph80%30.36 "HgN/A
5:00 AM27 °FOvercast.9 mph69%30.36 "HgN/A
4:30 AM27 °FOvercast.8 mph69%30.36 "HgN/A
4:00 AM27 °FOvercast.8 mph69%30.36 "HgN/A
3:30 AM27 °FOvercast.7 mph69%30.39 "HgN/A
3:00 AM25 °FOvercast.7 mph74%30.39 "HgN/A
2:30 AM25 °FOvercast.7 mph74%30.39 "HgN/A
2:00 AM25 °FOvercast.8 mph74%30.39 "HgN/A
1:30 AM25 °FOvercast.7 mph74%30.39 "HgN/A
1:00 AM25 °FOvercast.7 mph69%30.39 "HgN/A
12:30 AM25 °FOvercast.7 mph69%30.39 "HgN/A
12:00 AM25 °FOvercast.7 mph69%30.42 "HgN/A
11:30 PM
Nov 25
25 °FOvercast.6 mph69%30.42 "HgN/A
11:00 PM25 °FOvercast.6 mph69%30.42 "HgN/A
10:30 PM25 °FOvercast.8 mph69%30.42 "HgN/A
10:00 PM25 °FOvercast.9 mph69%30.42 "HgN/A
9:30 PM25 °FOvercast.7 mph69%30.42 "HgN/A
9:00 PM25 °FOvercast.9 mph69%30.42 "HgN/A
8:30 PM25 °FOvercast.12 mph69%30.42 "HgN/A
8:00 PM25 °FOvercast.12 mph74%30.42 "HgN/A
7:30 PM27 °FLight snow. Overcast.13 mph69%30.42 "HgN/A
7:00 PM27 °FOvercast.9 mph74%30.42 "HgN/A
6:30 PM27 °FOvercast.9 mph74%30.42 "HgN/A
6:00 PM27 °FOvercast.12 mph74%30.42 "HgN/A
5:30 PM27 °FOvercast.8 mph74%30.42 "HgN/A
5:00 PM27 °FMostly cloudy.9 mph74%30.42 "HgN/A
4:30 PM27 °FMostly cloudy.12 mph74%30.42 "Hg5 mi
4:00 PM27 °FLow clouds.10 mph80%30.42 "Hg4 mi
3:30 PM27 °FLow clouds.10 mph80%30.42 "Hg4 mi
3:00 PM27 °FSnow flurries. Ice fog.8 mph86%30.42 "Hg3 mi
Weather by CustomWeather, © 2014

See weather overviewHow to use our weather pages